Location: Newark
(54.7500°N, 9.9000°E)
Time: 23:06:00
(UTC+00:00)

ISS - Visible Passes

Search period start: 22 January 2020 00:00
Search period end: 01 February 2020 00:00
Orbit: 415 x 421 km, 51.6° (Epoch: 23 January)

Date Brightness Start Highest point End Pass type
(mag) Time Alt. Az. Time Alt. Az. Time Alt. Az.
22 Jan -1.3 17:27:40 10° SSE 17:28:19 11° SE 17:28:19 11° SE visible
23 Jan -1.7 18:13:47 10° SSW 18:15:23 20° S 18:15:23 20° S visible
24 Jan -2.0 17:26:15 10° SSW 17:28:45 19° SSE 17:29:26 18° SE visible
24 Jan -0.8 19:01:48 10° WSW 19:02:23 14° WSW 19:02:23 14° WSW visible
25 Jan -1.5 16:38:59 10° S 16:40:55 15° SE 16:42:52 10° ESE visible
25 Jan -2.5 18:13:55 10° SW 18:16:22 33° SSW 18:16:22 33° SSW visible
26 Jan -2.6 17:26:06 10° SW 17:29:08 31° SSE 17:30:20 24° ESE visible
26 Jan -1.0 19:02:17 10° WSW 19:03:16 18° WSW 19:03:16 18° WSW visible
27 Jan -2.1 16:38:24 10° SSW 16:41:13 25° SSE 16:44:02 10° E visible
27 Jan -3.0 18:14:18 10° WSW 18:17:11 45° SSW 18:17:11 45° SSW visible
28 Jan -3.0 17:26:21 10° WSW 17:29:34 43° S 17:31:05 25° ESE visible
28 Jan -1.1 19:02:49 10° W 19:04:01 19° WSW 19:04:01 19° WSW visible
29 Jan -2.7 16:38:26 10° SW 16:41:35 37° SSE 16:44:43 10° E visible
29 Jan -3.2 18:14:46 10° W 18:17:54 48° SSW 18:17:54 48° SSW visible
30 Jan -3.2 17:26:45 10° WSW 17:30:01 50° S 17:31:48 23° ESE visible
30 Jan -1.2 19:03:23 10° W 19:04:43 20° WSW 19:04:43 20° WSW visible
31 Jan -3.0 16:38:43 10° WSW 16:41:59 47° S 16:45:15 10° E visible
31 Jan -2.9 18:15:17 10° W 18:18:28 40° SSW 18:18:38 40° S visible
